Location: Unspecified
(56.5167°N, 0.0000°E)
Time: 18:50:01
(UTC+01:00)

ISS - Visible Passes

Search period start: 24 November 2014 00:00
Search period end: 04 December 2014 00:00
Orbit: 407 x 417 km, 51.6° (Epoch: 24 November)

Date Brightness Start Highest point End Pass type
(mag) Time Alt. Az. Time Alt. Az. Time Alt. Az.
24 Nov -0.9 05:53:32 18° SSE 05:53:32 18° SSE 05:54:46 10° SE visible
24 Nov -0.8 07:26:51 10° SW 07:27:48 11° SW 07:28:45 10° SSW visible
25 Nov -1.0 06:38:46 15° SSW 06:38:46 15° SSW 06:40:18 10° S visible
26 Nov -0.3 05:51:10 10° SSE 05:51:10 10° SSE 05:51:15 10° SSE visible
